Time,TemperatureF,DewpointF,PressureIn,WindDirection,WindDirectionDegrees,WindSpeedMPH,WindSpeedGustMPH,Humidity,HourlyPrecipIn,Conditions,Clouds,dailyrainin,SoftwareType,DateUTC
2013-09-04 00:12:00,68.1,60.0,29.94,West,275,0.0,2.0,76,0.00,,,0.00,weatherlink.com 1.10,2013-09-04 04:12:00,
2013-09-04 00:27:00,68.6,60.0,29.94,WSW,248,0.0,2.0,75,0.00,,,0.00,weatherlink.com 1.10,2013-09-04 04:27:00,
2013-09-04 00:42:00,67.9,60.0,29.95,WSW,257,1.0,2.0,76,0.00,,,0.00,weatherlink.com 1.10,2013-09-04 04:42:00,
2013-09-04 00:57:00,67.3,60.0,29.95,West,281,0.0,1.0,77,0.00,,,0.00,weatherlink.com 1.10,2013-09-04 04:57:00,
2013-09-04 01:12:00,66.5,59.0,29.95,WNW,282,0.0,1.0,78,0.00,,,0.00,weatherlink.com 1.10,2013-09-04 05:12:00,
2013-09-04 01:27:00,65.4,59.0,29.95,WSW,252,0.0,1.0,80,0.00,,,0.00,weatherlink.com 1.10,2013-09-04 05:27:00,
2013-09-04 01:42:00,64.6,58.0,29.96,WSW,252,0.0,0.0,80,0.00,,,0.00,weatherlink.com 1.10,2013-09-04 05:42:00,
2013-09-04 01:57:00,63.8,59.0,29.96,WSW,252,0.0,0.0,83,0.00,,,0.00,weatherlink.com 1.10,2013-09-04 05:57:00,
2013-09-04 02:12:00,63.2,58.0,29.97,WSW,252,0.0,0.0,84,0.00,,,0.00,weatherlink.com 1.10,2013-09-04 06:12:00,
2013-09-04 02:27:00,63.5,58.0,29.96,West,262,0.0,1.0,83,0.00,,,0.00,weatherlink.com 1.10,2013-09-04 06:27:00,
2013-09-04 02:42:00,63.2,58.0,29.97,WNW,284,0.0,1.0,84,0.00,,,0.00,weatherlink.com 1.10,2013-09-04 06:42:00,
2013-09-04 02:57:00,63.0,58.0,29.97,West,277,0.0,1.0,84,0.00,,,0.00,weatherlink.com 1.10,2013-09-04 06:57:00,
2013-09-04 03:12:00,62.4,58.0,29.97,West,277,0.0,0.0,85,0.00,,,0.00,weatherlink.com 1.10,2013-09-04 07:12:00,
2013-09-04 03:27:00,62.2,58.0,29.97,West,277,0.0,1.0,85,0.00,,,0.00,weatherlink.com 1.10,2013-09-04 07:27:00,
2013-09-04 03:42:00,62.0,58.0,29.97,West,277,0.0,0.0,85,0.00,,,0.00,weatherlink.com 1.10,2013-09-04 07:42:00,
2013-09-04 03:57:00,63.1,58.0,29.98,WNW,290,0.0,4.0,82,0.00,,,0.00,weatherlink.com 1.10,2013-09-04 07:57:00,
2013-09-04 04:13:00,63.2,57.0,29.98,West,278,0.0,1.0,81,0.00,,,0.00,weatherlink.com 1.10,2013-09-04 08:13:00,
2013-09-04 04:28:00,62.8,57.0,29.99,WSW,239,0.0,1.0,82,0.00,,,0.00,weatherlink.com 1.10,2013-09-04 08:28:00,
2013-09-04 04:43:00,62.5,57.0,29.99,West,279,0.0,0.0,82,0.00,,,0.00,weatherlink.com 1.10,2013-09-04 08:43:00,
2013-09-04 04:58:00,62.4,57.0,29.99,WNW,284,0.0,1.0,82,0.00,,,0.00,weatherlink.com 1.10,2013-09-04 08:58:00,
2013-09-04 05:13:00,62.3,57.0,30.00,West,276,0.0,0.0,82,0.00,,,0.00,weatherlink.com 1.10,2013-09-04 09:13:00,
2013-09-04 05:28:00,61.6,57.0,30.00,WSW,255,0.0,0.0,84,0.00,,,0.00,weatherlink.com 1.10,2013-09-04 09:28:00,
2013-09-04 05:43:00,61.2,57.0,30.00,WSW,255,0.0,0.0,85,0.00,,,0.00,weatherlink.com 1.10,2013-09-04 09:43:00,
2013-09-04 05:58:00,60.8,57.0,30.01,WSW,253,0.0,0.0,86,0.00,,,0.00,weatherlink.com 1.10,2013-09-04 09:58:00,
2013-09-04 06:13:00,60.3,57.0,30.01,WSW,255,0.0,0.0,87,0.00,,,0.00,weatherlink.com 1.10,2013-09-04 10:13:00,
2013-09-04 06:28:00,59.8,56.0,30.01,WSW,255,0.0,0.0,88,0.00,,,0.00,weatherlink.com 1.10,2013-09-04 10:28:00,
2013-09-04 06:43:00,59.5,56.0,30.02,WSW,255,0.0,0.0,89,0.00,,,0.00,weatherlink.com 1.10,2013-09-04 10:43:00,
2013-09-04 06:58:00,59.6,57.0,30.03,WNW,287,0.0,0.0,90,0.00,,,0.00,weatherlink.com 1.10,2013-09-04 10:58:00,
2013-09-04 07:13:00,61.3,57.0,30.03,WNW,285,0.0,2.0,86,0.00,,,0.00,weatherlink.com 1.10,2013-09-04 11:13:00,
2013-09-04 07:28:00,62.5,57.0,30.04,West,270,1.0,3.0,82,0.00,,,0.00,weatherlink.com 1.10,2013-09-04 11:28:00,
2013-09-04 07:43:00,63.2,57.0,30.05,West,278,1.0,2.0,80,0.00,,,0.00,weatherlink.com 1.10,2013-09-04 11:43:00,
2013-09-04 07:58:00,64.0,58.0,30.05,West,275,0.0,3.0,80,0.00,,,0.00,weatherlink.com 1.10,2013-09-04 11:58:00,
2013-09-04 08:13:00,64.7,58.0,30.05,West,277,2.0,4.0,79,0.00,,,0.00,weatherlink.com 1.10,2013-09-04 12:13:00,
2013-09-04 08:28:00,65.6,58.0,30.06,West,278,0.0,4.0,77,0.00,,,0.00,weatherlink.com 1.10,2013-09-04 12:28:00,
2013-09-04 08:43:00,66.5,59.0,30.06,WNW,290,0.0,4.0,77,0.00,,,0.00,weatherlink.com 1.10,2013-09-04 12:43:00,
2013-09-04 08:58:00,68.3,60.0,30.06,West,267,2.0,3.0,75,0.00,,,0.00,weatherlink.com 1.10,2013-09-04 12:58:00,
2013-09-04 09:13:00,69.7,60.0,30.06,WNW,288,0.0,4.0,72,0.00,,,0.00,weatherlink.com 1.10,2013-09-04 13:13:00,
2013-09-04 09:28:00,71.1,60.0,30.06,NNE,20,1.0,4.0,69,0.00,,,0.00,weatherlink.com 1.10,2013-09-04 13:28:00,
2013-09-04 09:43:00,71.8,61.0,30.06,West,278,2.0,4.0,69,0.00,,,0.00,weatherlink.com 1.10,2013-09-04 13:43:00,
2013-09-04 09:58:00,72.6,61.0,30.06,NE,40,0.0,4.0,66,0.00,,,0.00,weatherlink.com 1.10,2013-09-04 13:58:00,
2013-09-04 10:13:00,73.3,61.0,30.06,West,277,1.0,4.0,65,0.00,,,0.00,weatherlink.com 1.10,2013-09-04 14:13:00,
2013-09-04 10:28:00,73.8,60.0,30.06,NE,39,1.0,4.0,63,0.00,,,0.00,weatherlink.com 1.10,2013-09-04 14:28:00,
2013-09-04 10:43:00,74.2,60.0,30.06,NE,36,0.0,3.0,62,0.00,,,0.00,weatherlink.com 1.10,2013-09-04 14:43:00,
2013-09-04 10:58:00,74.5,61.0,30.06,NE,56,1.0,4.0,62,0.00,,,0.00,weatherlink.com 1.10,2013-09-04 14:58:00,
2013-09-04 11:14:00,75.6,61.0,30.06,NNE,32,1.0,2.0,61,0.00,,,0.00,weatherlink.com 1.10,2013-09-04 15:14:00,
2013-09-04 11:29:00,76.8,62.0,30.06,WNW,290,0.0,1.0,61,0.00,,,0.00,weatherlink.com 1.10,2013-09-04 15:29:00,
2013-09-04 11:44:00,77.5,62.0,30.06,NNE,19,1.0,3.0,59,0.00,,,0.00,weatherlink.com 1.10,2013-09-04 15:44:00,
2013-09-04 11:59:00,77.2,62.0,30.06,East,97,2.0,5.0,59,0.00,,,0.00,weatherlink.com 1.10,2013-09-04 15:59:00,
2013-09-04 12:14:00,77.7,62.0,30.06,ESE,110,2.0,4.0,59,0.00,,,0.00,weatherlink.com 1.10,2013-09-04 16:14:00,
2013-09-04 12:29:00,75.5,62.0,30.06,ESE,108,4.0,6.0,64,0.00,,,0.00,weatherlink.com 1.10,2013-09-04 16:29:00,
2013-09-04 12:44:00,75.4,62.0,30.05,ESE,122,3.0,5.0,63,0.00,,,0.00,weatherlink.com 1.10,2013-09-04 16:44:00,
2013-09-04 12:59:00,75.3,63.0,30.05,ESE,113,4.0,5.0,66,0.00,,,0.00,weatherlink.com 1.10,2013-09-04 16:59:00,
2013-09-04 13:14:00,75.4,63.0,30.05,ESE,107,7.0,7.0,66,0.00,,,0.00,weatherlink.com 1.10,2013-09-04 17:14:00,
2013-09-04 13:29:00,75.7,63.0,30.04,ESE,108,4.0,8.0,64,0.00,,,0.00,weatherlink.com 1.10,2013-09-04 17:29:00,
2013-09-04 13:44:00,76.0,64.0,30.04,ESE,108,4.0,6.0,66,0.00,,,0.00,weatherlink.com 1.10,2013-09-04 17:44:00,
2013-09-04 13:59:00,76.2,63.0,30.04,ESE,106,7.0,8.0,64,0.00,,,0.00,weatherlink.com 1.10,2013-09-04 17:59:00,
2013-09-04 14:14:00,76.2,64.0,30.03,ENE,78,5.0,9.0,65,0.00,,,0.00,weatherlink.com 1.10,2013-09-04 18:14:00,
2013-09-04 14:29:00,76.6,64.0,30.03,ESE,105,6.0,7.0,65,0.00,,,0.00,weatherlink.com 1.10,2013-09-04 18:29:00,
2013-09-04 14:44:00,76.5,64.0,30.03,ESE,107,5.0,8.0,65,0.00,,,0.00,weatherlink.com 1.10,2013-09-04 18:44:00,
2013-09-04 14:59:00,76.6,64.0,30.02,East,93,7.0,10.0,66,0.00,,,0.00,weatherlink.com 1.10,2013-09-04 18:59:00,
2013-09-04 15:14:00,76.7,65.0,30.02,East,89,4.0,8.0,67,0.00,,,0.00,weatherlink.com 1.10,2013-09-04 19:14:00,
2013-09-04 15:29:00,76.9,65.0,30.02,ESE,103,6.0,7.0,66,0.00,,,0.00,weatherlink.com 1.10,2013-09-04 19:29:00,
2013-09-04 15:44:00,76.7,64.0,30.01,East,97,4.0,8.0,65,0.00,,,0.00,weatherlink.com 1.10,2013-09-04 19:44:00,
2013-09-04 15:59:00,77.0,65.0,30.01,ESE,102,4.0,7.0,67,0.00,,,0.00,weatherlink.com 1.10,2013-09-04 19:59:00,
2013-09-04 16:14:00,77.2,66.0,30.01,East,92,6.0,7.0,68,0.00,,,0.00,weatherlink.com 1.10,2013-09-04 20:14:00,
2013-09-04 16:29:00,77.0,66.0,30.00,East,95,7.0,9.0,69,0.00,,,0.00,weatherlink.com 1.10,2013-09-04 20:29:00,
2013-09-04 16:44:00,77.1,66.0,30.00,East,91,7.0,7.0,69,0.00,,,0.00,weatherlink.com 1.10,2013-09-04 20:44:00,
2013-09-04 16:59:00,77.2,68.0,30.00,East,86,5.0,7.0,72,0.00,,,0.00,weatherlink.com 1.10,2013-09-04 20:59:00,
2013-09-04 17:14:00,77.3,68.0,30.00,East,98,6.0,7.0,72,0.00,,,0.00,weatherlink.com 1.10,2013-09-04 21:14:00,
2013-09-04 17:29:00,77.3,67.0,30.00,East,96,4.0,6.0,71,0.00,,,0.00,weatherlink.com 1.10,2013-09-04 21:29:00,
2013-09-04 17:44:00,77.5,67.0,30.00,East,81,2.0,7.0,70,0.00,,,0.00,weatherlink.com 1.10,2013-09-04 21:44:00,
2013-09-04 17:59:00,77.2,63.0,30.00,SW,227,0.0,2.0,62,0.00,,,0.00,weatherlink.com 1.10,2013-09-04 21:59:00,
2013-09-04 18:14:00,77.4,62.0,30.00,West,269,0.0,2.0,59,0.00,,,0.00,weatherlink.com 1.10,2013-09-04 22:14:00,
2013-09-04 18:29:00,76.6,62.0,30.00,WSW,248,0.0,5.0,60,0.00,,,0.00,weatherlink.com 1.10,2013-09-04 22:29:00,
2013-09-04 18:44:00,75.6,62.0,30.00,West,264,0.0,1.0,62,0.00,,,0.00,weatherlink.com 1.10,2013-09-04 22:44:00,
2013-09-04 18:59:00,74.4,62.0,29.99,West,278,0.0,2.0,65,0.00,,,0.00,weatherlink.com 1.10,2013-09-04 22:59:00,
2013-09-04 19:14:00,73.1,64.0,30.00,West,278,0.0,1.0,74,0.00,,,0.00,weatherlink.com 1.10,2013-09-04 23:14:00,
2013-09-04 19:29:00,71.3,64.0,30.00,West,278,0.0,0.0,77,0.00,,,0.00,weatherlink.com 1.10,2013-09-04 23:29:00,
2013-09-04 19:44:00,70.2,63.0,30.00,West,278,0.0,1.0,78,0.00,,,0.00,weatherlink.com 1.10,2013-09-04 23:44:00,
2013-09-04 19:59:00,69.7,63.0,30.00,West,278,0.0,1.0,79,0.00,,,0.00,weatherlink.com 1.10,2013-09-04 23:59:00,
2013-09-04 20:14:00,69.4,62.0,30.00,West,271,0.0,1.0,78,0.00,,,0.00,weatherlink.com 1.10,2013-09-05 00:14:00,
2013-09-04 20:29:00,69.0,62.0,30.01,NW,305,0.0,0.0,78,0.00,,,0.00,weatherlink.com 1.10,2013-09-05 00:29:00,
2013-09-04 20:44:00,68.4,62.0,30.01,NW,305,0.0,0.0,79,0.00,,,0.00,weatherlink.com 1.10,2013-09-05 00:44:00,
2013-09-04 20:59:00,67.9,62.0,30.01,NW,305,0.0,1.0,81,0.00,,,0.00,weatherlink.com 1.10,2013-09-05 00:59:00,
2013-09-04 21:14:00,67.7,62.0,30.01,NW,304,0.0,0.0,81,0.00,,,0.00,weatherlink.com 1.10,2013-09-05 01:14:00,
2013-09-04 21:29:00,67.5,62.0,30.02,NW,305,0.0,0.0,81,0.00,,,0.00,weatherlink.com 1.10,2013-09-05 01:29:00,
2013-09-04 21:44:00,67.3,62.0,30.02,NW,305,0.0,0.0,82,0.00,,,0.00,weatherlink.com 1.10,2013-09-05 01:44:00,
2013-09-04 21:59:00,66.9,61.0,30.01,NW,305,0.0,0.0,82,0.00,,,0.00,weatherlink.com 1.10,2013-09-05 01:59:00,
2013-09-04 22:14:00,66.5,62.0,30.02,NW,305,0.0,0.0,84,0.00,,,0.00,weatherlink.com 1.10,2013-09-05 02:14:00,
2013-09-04 22:29:00,65.9,61.0,30.02,NW,305,0.0,0.0,85,0.00,,,0.00,weatherlink.com 1.10,2013-09-05 02:29:00,
2013-09-04 22:44:00,65.5,61.0,30.02,NW,305,0.0,0.0,86,0.00,,,0.00,weatherlink.com 1.10,2013-09-05 02:44:00,
2013-09-04 22:59:00,65.3,61.0,30.02,NW,304,0.0,0.0,87,0.00,,,0.00,weatherlink.com 1.10,2013-09-05 02:59:00,
2013-09-04 23:14:00,65.1,61.0,30.03,NW,304,0.0,0.0,87,0.00,,,0.00,weatherlink.com 1.10,2013-09-05 03:14:00,
2013-09-04 23:29:00,64.8,61.0,30.02,NW,305,0.0,0.0,88,0.00,,,0.00,weatherlink.com 1.10,2013-09-05 03:29:00,
2013-09-04 23:44:00,64.5,61.0,30.02,NW,304,0.0,0.0,89,0.00,,,0.00,weatherlink.com 1.10,2013-09-05 03:44:00,
2013-09-04 23:59:00,64.3,61.0,30.02,NW,304,0.0,0.0,90,0.00,,,0.00,weatherlink.com 1.10,2013-09-05 03:59:00,